Location: Andiroba
(19.8650°S, 43.9258°W)
Time: 08:15:28
(UTC+00:00)

Cosmos 1447 Rocket - Pass Details

Date: 25 September 2024
Orbit: 954 x 995 km, 82.9° (Epoch: 12 October)

Event Time Altitude Azimuth Distance (km) Brightness Sun altitude
Rises 06:36:03 0° 174° (S) 3,673 7.7 -30.2°
Reaches altitude 10° 06:38:43 10° 167° (SSE) 2,715 7.1 -29.6°
Maximum altitude 06:44:35 43° 97° (E) 1,317 5.5 -28.3°
Drops below altitude 10° 06:50:21 10° 26° (NNE) 2,674 6.9 -26.9°
Sets 06:52:56 0° 19° (NNE) 3,612 7.6 -26.3°
